FW9853 Weather Reports


time (UTC)temp
C
wind
direction
speed
KPH
gust
KPH
rain 1hr
cm
rain 24hr
cm
rain mn
cm
humidity
%
barometer
mb
20260503050040 9 0.0 0.0 0.00 0.00 0.00 62 1007.7
20260503045016 9 0.0 0.0 0.00 0.00 0.00 65 1007.7
20260503044030 9 0.0 0.0 0.00 0.00 0.00 67 1007.5
20260503043047 9 0.0 0.0 0.00 0.00 0.00 68 1007.6
20260503042027 9 0.0 0.0 0.00 0.00 0.00 70 1007.5
20260503041041 9 0.0 0.0 0.00 0.00 0.00 71 1008.0
20260503040018 9 0.0 0.0 0.00 0.00 0.00 75 1007.8
20260503035015 9 0.0 0.0 0.00 0.00 0.00 77 1007.9
20260503034028 9 0.0 0.0 0.00 0.00 0.00 78 1007.7
20260503033026 9 0.0 0.0 0.00 0.00 0.00 80 1007.3
20260503032023 9 0.0 0.0 0.00 0.00 0.00 81 1007.5
20260503031020 9 0.0 0.0 0.00 0.00 0.00 80 1007.7
20260503030018 9 0.0 0.0 0.00 0.00 0.00 79 1007.6
20260503025031 9 0.0 0.0 0.00 0.00 0.00 78 1007.8
20260503024028 9 0.0 0.0 0.00 0.00 0.00 78 1008.0
20260503023026 9 0.0 0.0 0.00 0.00 0.00 76 1008.1
20260503022022 9 0.0 0.0 0.00 0.00 0.00 76 1008.0
20260503021019 10 0.0 0.0 0.00 0.00 0.00 76 1008.1
20260503020016 10 0.0 0.0 0.00 0.00 0.00 75 1007.8
20260503015030 10 0.0 0.0 0.00 0.00 0.00 75 1007.9
20260503014027 10 0.0 0.0 0.00 0.00 0.00 75 1007.8
20260503013024 10 0.0 0.0 0.00 0.00 0.00 75 1007.8
20260503012021 11 0.0 0.0 0.00 0.00 0.00 74 1008.0
20260503011037 11 0.0 0.0 0.00 0.00 0.00 73 1008.0
20260503010031 11 0.0 0.0 0.00 0.00 0.00 73 1007.7
20260503005028 11 0.0 0.0 0.00 0.00 0.00 71 1007.7
20260503004028 11 0.0 0.0 0.00 0.00 0.00 71 1007.5
20260503003024 11 0.0 0.0 0.00 0.00 0.00 71 1007.5
20260503002019 11 0.0 0.0 0.00 0.00 0.00 70 1007.5
20260503001017 12 0.0 0.0 0.00 0.00 0.00 70 1007.5
20260503000030 12 0.0 0.0 0.00 0.00 0.00 70 1007.3
20260502235027 12 0.0 0.0 0.00 0.00 0.00 70 1007.4
20260502234024 12 0.0 0.0 0.00 0.00 0.00 69 1007.3
20260502233043 13 0.0 0.0 0.00 0.00 0.00 69 1007.5
20260502232038 13 0.0 0.0 0.00 0.00 0.00 68 1007.3
20260502231015 13 0.0 0.0 0.00 0.00 0.00 67 1007.4
20260502230030 13 0.0 0.0 0.00 0.00 0.00 66 1007.4
20260502225026 13 0.0 0.0 0.00 0.00 0.00 66 1007.3
20260502224023 14 0.0 0.0 0.00 0.00 0.00 65 1007.3
20260502223020 14 0.0 0.0 0.00 0.00 0.00 65 1007.1
20260502222019 15 0.0 0.0 0.00 0.00 0.00 64 1007.3
20260502221031 15 0.0 0.0 0.00 0.00 0.00 63 1007.5
20260502220049 15 0.0 0.0 0.00 0.00 0.00 61 1007.3
20260502215025 15 0.0 0.0 0.00 0.00 0.00 61 1007.2
20260502214022 16 0.0 0.0 0.00 0.00 0.00 61 1007.0
20260502213039 16 0.0 0.0 0.00 0.00 0.00 61 1006.8
20260502212036 16 0.0 0.0 0.00 0.00 0.00 61 1007.0
20260502211050 16 0.0 0.0 0.00 0.00 0.00 60 1007.0
20260502210047 16 0.0 0.0 0.00 0.00 0.00 60 1006.9
20260502205024 16 0.0 0.0 0.00 0.00 0.00 59 1007.1
20260502204041 17 0.0 0.0 0.00 0.00 0.00 59 1007.0
20260502203018 17 0.0 0.0 0.00 0.00 0.00 58 1006.6
20260502202016 18 0.0 0.0 0.00 0.00 0.00 56 1007.0
20260502201049 17 0.0 0.0 0.00 0.00 0.00 57 1006.9
20260502200026 17 0.0 0.0 0.00 0.00 0.00 58 1007.3
20260502195023 17 0.0 0.0 0.00 0.00 0.00 59 1007.4
20260502194020 17 0.0 0.0 0.00 0.00 0.00 59 1007.7
20260502193016 17 0.0 0.0 0.00 0.00 0.00 60 1007.7
20260502192031 17 0.0 0.0 0.00 0.00 0.00 60 1007.8
20260502191050 17 0.0 0.0 0.00 0.00 0.00 61 1008.0
20260502190025 17 0.0 0.0 0.00 0.00 0.00 60 1007.8
20260502185027 17 0.0 0.0 0.00 0.00 0.00 60 1007.8
20260502184019 17 0.0 0.0 0.00 0.00 0.00 59 1007.7
20260502183016 17 0.0 0.0 0.00 0.00 0.00 60 1007.9
20260502182031 18 0.0 0.0 0.00 0.00 0.00 62 1007.8
20260502181026 17 0.0 0.0 0.00 0.00 0.00 65 1007.9
20260502164033 14 0.0 0.0 0.00 0.00 0.00 76 1008.8
20260502163030 14 0.0 0.0 0.00 0.00 0.00 76 1008.7
20260502162047 14 0.0 0.0 0.00 0.00 0.00 76 1008.5
20260502161025 14 0.0 0.0 0.00 0.00 0.00 78 1008.7
20260502152046 13 0.0 0.0 0.00 0.00 0.00 78 1009.0
20260502151100 13 0.0 0.0 0.00 0.00 0.00 78 1009.1
20260502123026 12 0.0 0.0 0.00 0.00 0.00 83 1009.1
20260502122023 11 0.0 0.0 0.00 0.00 0.00 85 1009.3
20260502121020 11 0.0 0.0 0.00 0.00 0.00 85 1009.4
20260502115031 11 0.0 0.0 0.00 0.00 0.00 85 1009.2
20260502114028 11 0.0 0.0 0.00 0.00 0.00 85 1009.4
20260502113045 11 0.0 0.0 0.00 0.00 0.00 86 1009.3
20260502112022 11 0.0 0.0 0.00 0.00 0.00 86 1009.5
20260502111019 11 0.0 0.0 0.00 0.00 0.00 86 1009.5
20260502110016 10 0.0 0.0 0.00 0.00 0.00 86 1009.6
20260502105030 10 0.0 0.0 0.00 0.00 0.00 86 1009.4
20260502104027 10 0.0 0.0 0.00 0.00 0.00 88 1009.1
20260502103024 10 0.0 0.0 0.00 0.00 0.00 88 1009.1
20260502102023 9 0.0 0.0 0.00 0.00 0.00 88 1009.0
20260502101038 9 0.0 0.0 0.00 0.00 0.00 88 1009.1
20260502091017 9 0.0 0.0 0.00 0.00 0.00 86 1009.2
20260502071031 9 0.0 0.0 0.00 0.00 0.00 83 1009.4
20260502070028 9 0.0 0.0 0.00 0.00 0.00 83 1009.1
20260502065026 9 0.0 0.0 0.00 0.00 0.00 83 1009.3
20260502064022 9 0.0 0.0 0.00 0.00 0.00 83 1009.5
20260502063019 9 0.0 0.0 0.00 0.00 0.00 83 1009.8
20260502062016 9 0.0 0.0 0.00 0.00 0.00 84 1009.5
20260502061030 9 0.0 0.0 0.00 0.00 0.00 83 1009.8
20260502060027 9 0.0 0.0 0.00 0.00 0.00 83 1009.9
20260502055024 9 0.0 0.0 0.00 0.00 0.00 83 1009.6
20260502054021 9 0.0 0.0 0.00 0.00 0.00 83 1009.4
20260502053018 9 0.0 0.0 0.00 0.00 0.00 83 1009.4
20260502052015 9 0.0 0.0 0.00 0.00 0.00 83 1009.9
20260502051029 9 0.0 0.0 0.00 0.00 0.00 83 1009.6